Retour au catalogue

COSMOS 1275 DEB

ActifPO
NORAD 42145·DEBRIS·🇷🇺 Russia

Lancé Jun 4, 1981 depuis Plesetsk Cosmodrome

Loading…

Prochains Passages (prochaines 24 heures)

TLE

VieillissantSource: Space-Track

Époque: Sep 6, 2026, 03:10 UTC

1 42145U 81053RH  26249.13252149  .00320557  00000-0  53072-2 0  9994
2 42145  83.3415  34.8512 0005914 310.5669  49.5069 15.51024476676540

Suivez COSMOS 1275 DEB en temps réel avec AllMySat

Download on the App Store